DW7380 Weather Reports


Display with metric or nautical units.
time (UTC)temp
F
wind
direction
speed
MPH
gust
MPH
rain 1hr
in
rain 24hr
in
rain mn
in
humidity
%
barometer
mb
20211023083511 39 269 0.0 0.0 0.00 0.07 0.00 90 995.7
20211023083011 39 12 0.0 0.0 0.00 0.07 0.00 90 995.6
20211023082511 39 14 0.0 0.0 0.00 0.07 0.00 90 995.5
20211023082011 39 282 0.0 0.0 0.00 0.07 0.00 90 995.3
20211023081512 39 270 0.0 0.0 0.00 0.07 0.00 90 995.2
20211023080511 39 39 0.0 0.0 0.00 0.07 0.00 90 994.9
20211023080011 39 30 0.0 0.0 0.00 0.07 0.00 90 994.9
20211023075011 39 359 0.0 0.0 0.00 0.07 0.00 91 994.7
20211023074511 39 4 0.0 0.0 0.00 0.07 0.00 91 994.6
20211023074011 39 289 0.0 0.0 0.00 0.07 0.00 91 994.5
20211023073511 39 10 0.0 0.0 0.00 0.07 0.00 91 994.4
20211023073011 39 289 0.0 0.0 0.00 0.07 0.00 92 994.3
20211023072511 39 283 0.0 0.0 0.00 0.07 0.00 92 994.2
20211023072011 39 283 0.0 0.0 0.00 0.07 0.00 92 994.1
20211023071511 39 14 0.0 0.0 0.00 0.07 0.00 92 994.0
20211023070511 40 222 0.0 0.0 0.00 0.07 0.00 93 993.7
20211023070011 39 222 0.0 0.0 0.00 0.07 0.00 93 993.7
20211023065511 39 222 0.0 0.0 0.00 0.07 0.00 93 993.4
20211023065011 39 222 0.0 0.0 0.00 0.11 0.00 93 993.4
20211023064511 39 222 0.0 0.0 0.00 0.11 0.00 93 993.2
20211023064011 39 224 0.0 0.0 0.01 0.11 0.00 93 993.1
20211023063511 39 224 0.0 0.0 0.01 0.11 0.00 93 993.1
20211023062511 39 215 0.0 0.0 0.02 0.11 0.00 93 992.8
20211023062011 39 204 0.0 0.0 0.03 0.11 0.00 93 992.8
20211023061511 39 204 0.0 0.0 0.03 0.11 0.00 93 992.7
20211023061011 39 204 0.0 0.0 0.03 0.11 0.00 93 992.6
20211023060511 39 204 0.0 0.0 0.03 0.11 0.00 92 992.5
20211023060011 39 204 0.0 0.0 0.03 0.11 0.00 92 992.4
20211023055511 39 204 0.0 0.0 0.04 0.11 0.00 92 992.3
20211023055011 39 204 0.0 0.0 0.03 0.10 0.00 92 992.2
20211023054511 39 240 0.0 0.0 0.03 0.10 0.00 92 992.0
20211023054011 39 258 0.0 0.0 0.03 0.09 0.00 92 991.9
20211023053512 39 258 0.0 5.0 0.03 0.09 0.00 92 991.8
20211023053011 38 254 2.0 7.0 0.02 0.08 0.00 91 991.7
20211023052511 38 258 6.0 6.0 0.02 0.08 0.00 91 991.6
20211023052011 38 254 4.0 4.0 0.01 0.07 0.00 91 991.5
20211023051511 39 270 0.0 7.0 0.01 0.07 0.00 90 991.4
20211023051011 39 262 0.0 7.0 0.01 0.07 0.00 90 991.3
20211023050511 39 268 3.0 11.0 0.01 0.07 0.00 89 991.4
20211023045511 40 222 4.0 14.0 0.00 0.06 0.00 89 991.2
20211023045011 40 179 0.0 11.0 0.00 0.06 0.00 90 990.8
20211023044511 40 159 4.0 10.0 0.00 0.06 0.00 90 990.8
20211023044011 40 174 4.0 9.0 0.00 0.06 0.00 90 990.8
20211023043511 41 210 0.0 10.0 0.00 0.06 0.00 90 990.7
20211023043011 41 180 6.0 9.0 0.00 0.06 0.00 90 990.6
20211023042511 41 172 5.0 10.0 0.00 0.06 0.00 89 990.5
20211023042011 41 190 7.0 13.0 0.00 0.06 0.00 89 990.4
20211023041511 41 162 11.0 12.0 0.00 0.06 0.00 89 990.4
20211023041011 41 179 4.0 11.0 0.00 0.06 0.00 89 990.2
20211023040511 41 183 2.0 8.0 0.00 0.06 0.00 89 990.1
20211023035511 41 174 8.0 12.0 0.00 0.06 0.00 89 990.0
20211023035011 41 189 4.0 15.0 0.00 0.06 0.00 89 989.9
20211023034511 41 175 2.0 11.0 0.00 0.06 0.00 89 989.9
20211023034011 41 162 7.0 13.0 0.00 0.06 0.00 89 989.8
20211023033511 41 172 12.0 16.0 0.00 0.06 0.00 89 989.7
20211023032511 41 183 9.0 12.0 0.00 0.06 0.00 89 989.6
20211023031511 41 193 7.0 14.0 0.00 0.06 0.00 89 989.5
20211023031011 41 195 6.0 13.0 0.00 0.06 0.00 89 989.5
20211023030511 41 201 4.0 12.0 0.00 0.06 0.00 89 989.3
20211023025511 41 201 6.0 15.0 0.00 0.06 0.00 89 989.2
20211023024510 41 173 2.0 11.0 0.00 0.06 0.00 90 989.1
20211023024011 41 194 1.0 12.0 0.00 0.06 0.00 90 989.0
20211023023510 40 161 5.0 15.0 0.00 0.06 0.00 90 988.8
20211023022511 40 173 8.0 10.0 0.00 0.06 0.00 89 988.8
20211023022011 41 193 1.0 14.0 0.00 0.06 0.00 89 988.7
20211023021010 41 191 10.0 16.0 0.00 0.06 0.00 88 988.7
20211023020511 41 172 2.0 15.0 0.00 0.06 0.00 87 988.5
20211023015511 42 240 5.0 10.0 0.00 0.06 0.00 87 988.5
20211023014511 42 271 8.0 11.0 0.00 0.06 0.00 85 988.4
20211023014011 42 130 3.0 13.0 0.00 0.06 0.00 83 988.2
20211023013011 42 159 1.0 15.0 0.00 0.06 0.00 82 988.2
20211023012511 43 273 10.0 13.0 0.00 0.06 0.00 80 987.9
20211023011510 43 37 4.0 14.0 0.00 0.06 0.00 79 987.8
20211023011011 44 231 11.0 16.0 0.00 0.06 0.00 78 987.6
20211023010510 44 180 12.0 23.0 0.00 0.06 0.00 78 987.5
20211023010010 44 143 5.0 12.0 0.00 0.06 0.00 78 987.4
20211023005010 44 204 12.0 20.0 0.00 0.06 0.00 77 987.3
20211023004011 44 157 10.0 23.0 0.00 0.06 0.00 77 987.2
20211023003511 44 179 10.0 14.0 0.00 0.06 0.00 77 987.1
20211023002511 44 233 11.0 17.0 0.00 0.06 0.00 77 986.8
20211023002010 44 183 0.0 15.0 0.00 0.06 0.00 77 986.8
20211023001011 44 32 0.0 14.0 0.00 0.06 0.00 76 986.6
20211023000511 44 179 13.0 19.0 0.00 0.06 0.00 76 986.7
20211022235511 44 205 15.0 15.0 0.00 0.06 0.00 76 986.7
20211022235011 44 151 3.0 20.0 0.00 0.07 0.00 76 986.5
20211022234511 44 181 22.0 23.0 0.00 0.07 0.00 76 986.3
20211022234010 44 187 7.0 19.0 0.00 0.07 0.00 75 986.3
20211022233010 44 168 10.0 19.0 0.00 0.07 0.00 75 986.2
20211022232010 44 133 5.0 21.0 0.00 0.07 0.00 75 986.2
20211022231511 44 177 8.0 16.0 0.00 0.07 0.00 75 986.3
20211022230511 44 174 4.0 17.0 0.00 0.07 0.00 74 986.1
20211022230011 44 188 10.0 17.0 0.00 0.07 0.00 74 986.0
20211022225011 44 153 12.0 22.0 0.00 0.07 0.00 74 986.0
20211022224510 44 186 3.0 21.0 0.00 0.07 0.00 74 985.9
20211022223510 44 183 12.0 20.0 0.00 0.07 0.00 74 985.9
20211022223010 44 169 16.0 20.0 0.00 0.07 0.00 73 985.8
20211022222010 44 166 9.0 23.0 0.00 0.07 0.00 73 985.7
20211022221510 44 166 15.0 26.0 0.00 0.07 0.00 73 985.7
20211022220510 44 163 21.0 21.0 0.00 0.07 0.00 73 985.5
20211022220011 44 169 7.0 24.0 0.00 0.07 0.00 72 985.6
20211022215510 44 163 24.0 24.0 0.00 0.07 0.00 72 985.6
20211022215010 45 175 17.0 29.0 0.00 0.07 0.00 72 985.4
20211022214510 45 158 15.0 23.0 0.00 0.07 0.00 72 985.4
20211022214010 45 179 8.0 20.0 0.00 0.07 0.00 72 985.4
20211022213510 45 168 7.0 32.0 0.00 0.07 0.00 71 985.4
20211022213010 45 199 10.0 23.0 0.00 0.07 0.00 71 985.2
20211022212510 45 173 12.0 19.0 0.00 0.07 0.00 71 985.1
20211022212011 45 176 11.0 34.0 0.00 0.07 0.00 71 985.1
20211022211510 45 162 10.0 23.0 0.00 0.07 0.00 71 985.2
20211022211010 45 189 15.0 21.0 0.00 0.07 0.00 71 985.1
20211022210510 45 172 16.0 22.0 0.00 0.07 0.00 71 985.1
20211022210011 45 172 11.0 17.0 0.00 0.07 0.00 71 985.1
20211022205510 45 209 5.0 21.0 0.00 0.07 0.00 70 985.0
20211022205010 45 179 7.0 24.0 0.00 0.07 0.00 70 985.0
20211022204010 45 164 5.0 21.0 0.00 0.07 0.00 70 984.8
20211022203510 45 181 11.0 19.0 0.00 0.07 0.00 69 984.6
20211022203010 45 172 9.0 24.0 0.00 0.07 0.00 69 984.6
20211022202510 45 163 10.0 19.0 0.00 0.08 0.00 69 984.4
20211022202010 45 187 12.0 26.0 0.00 0.10 0.00 68 984.2
20211022201510 46 225 9.0 26.0 0.00 0.12 0.00 68 984.4
20211022201010 46 186 12.0 28.0 0.00 0.17 0.00 68 984.3
20211022200510 46 120 5.0 23.0 0.00 0.19 0.00 67 984.5
20211022200010 46 195 5.0 33.0 0.00 0.20 0.00 67 984.3
20211022195510 46 204 10.0 31.0 0.00 0.22 0.00 67 984.0
20211022195010 46 113 6.0 22.0 0.00 0.23 0.00 67 984.2
20211022194510 46 150 4.0 20.0 0.00 0.26 0.00 67 984.1
20211022194010 46 181 9.0 24.0 0.00 0.28 0.00 66 984.0
20211022193510 46 154 8.0 18.0 0.00 0.29 0.00 66 983.9
20211022193010 46 146 4.0 28.0 0.00 0.29 0.00 66 983.8
20211022192510 46 170 12.0 33.0 0.00 0.29 0.00 66 983.9
20211022192010 46 153 13.0 27.0 0.00 0.29 0.00 66 983.8
20211022191510 46 206 4.0 21.0 0.00 0.29 0.00 66 983.8
20211022191010 46 161 14.0 27.0 0.00 0.30 0.00 66 983.8
20211022190510 46 14 2.0 31.0 0.00 0.31 0.00 66 983.6
20211022190010 46 150 15.0 24.0 0.00 0.32 0.00 65 983.8
20211022185510 46 205 7.0 31.0 0.00 0.33 0.00 65 983.6
20211022185010 46 158 17.0 20.0 0.00 0.33 0.00 66 983.5
20211022184510 46 169 8.0 31.0 0.00 0.35 0.00 65 983.4
20211022184010 46 177 13.0 25.0 0.00 0.37 0.00 65 983.5
20211022183510 46 168 17.0 26.0 0.00 0.38 0.00 65 983.4
20211022183010 46 145 24.0 18.0 0.00 0.40 0.00 65 983.3
20211022182510 46 144 5.0 20.0 0.00 0.41 0.00 65 983.4
20211022182010 46 179 14.0 16.0 0.00 0.42 0.00 65 983.0
20211022181510 46 186 8.0 27.0 0.00 0.42 0.00 65 983.4
20211022181010 46 231 14.0 20.0 0.00 0.42 0.00 66 983.3
20211022180510 46 198 7.0 29.0 0.00 0.42 0.00 66 983.3
20211022180010 46 149 6.0 27.0 0.00 0.42 0.00 66 983.4
20211022175510 46 170 15.0 22.0 0.00 0.42 0.00 66 983.1
20211022175011 46 76 3.0 38.0 0.00 0.42 0.00 66 983.0
20211022174510 46 215 5.0 34.0 0.00 0.42 0.00 65 982.9
20211022174010 46 185 9.0 28.0 0.00 0.42 0.00 65 982.9
20211022173510 46 162 15.0 27.0 0.00 0.42 0.00 65 982.9
20211022173009 46 48 11.0 28.0 0.00 0.42 0.00 65 982.6
20211022172510 46 179 4.0 27.0 0.00 0.42 0.00 65 982.6
20211022172010 46 175 10.0 34.0 0.00 0.42 0.00 65 982.6
20211022171510 46 203 8.0 22.0 0.00 0.42 0.00 65 982.4
20211022171010 46 161 14.0 23.0 0.00 0.42 0.00 67 982.2
20211022170510 46 172 18.0 19.0 0.00 0.42 0.00 68 982.4
20211022170010 46 158 8.0 23.0 0.00 0.42 0.00 70 982.2
20211022165511 45 258 16.0 24.0 0.00 0.42 0.00 71 982.4
20211022165010 45 170 8.0 13.0 0.01 0.42 0.00 73 982.4
20211022164509 45 225 1.0 20.0 0.01 0.42 0.00 75 982.5
20211022164010 45 217 7.0 11.0 0.01 0.42 0.00 76 982.3
20211022163510 44 125 1.0 18.0 0.01 0.42 0.00 77 982.2
20211022163010 44 220 5.0 19.0 0.01 0.42 0.00 78 982.1
20211022162510 44 185 12.0 38.0 0.01 0.42 0.00 79 982.2
20211022162010 44 178 10.0 29.0 0.01 0.42 0.00 80 982.2
20211022161510 44 185 13.0 19.0 0.01 0.42 0.00 80 982.2
20211022161009 44 175 9.0 21.0 0.01 0.42 0.00 80 982.3
20211022160509 44 187 12.0 21.0 0.01 0.42 0.00 80 982.0
20211022160009 44 259 9.0 36.0 0.01 0.42 0.00 78 982.2
20211022155510 45 154 15.0 28.0 0.00 0.41 0.00 75 981.8
20211022155009 46 255 9.0 32.0 0.00 0.40 0.00 72 982.0
20211022154509 46 195 9.0 21.0 0.00 0.40 0.00 71 981.7
20211022154010 46 161 8.0 26.0 0.00 0.40 0.00 73 981.5
20211022153510 45 175 4.0 25.0 0.00 0.40 0.00 74 981.6
20211022153009 45 219 12.0 26.0 0.00 0.40 0.00 75 981.5
20211022152509 45 164 2.0 17.0 0.00 0.40 0.00 75 981.4
20211022152010 45 149 9.0 24.0 0.00 0.40 0.00 75 981.4
20211022151510 45 185 5.0 21.0 0.00 0.40 0.00 76 981.3
20211022151009 45 114 6.0 29.0 0.00 0.40 0.00 76 981.2
20211022150509 45 54 1.0 32.0 0.00 0.40 0.00 78 981.0
20211022150009 44 171 18.0 34.0 0.00 0.40 0.00 79 981.0
20211022145509 44 185 12.0 30.0 0.00 0.40 0.00 80 980.8
20211022145009 44 118 5.0 25.0 0.00 0.40 0.00 81 981.0
20211022144509 44 183 17.0 25.0 0.00 0.40 0.00 81 981.0
20211022144010 43 173 20.0 29.0 0.00 0.40 0.00 82 980.9
20211022143509 44 177 16.0 35.0 0.00 0.40 0.00 80 981.2
20211022143009 45 165 24.0 34.0 0.00 0.40 0.00 78 981.3
20211022142510 45 185 3.0 26.0 0.00 0.40 0.00 77 980.9
20211022142009 45 162 8.0 20.0 0.00 0.40 0.00 78 980.9
20211022141509 45 179 6.0 26.0 0.00 0.40 0.00 77 980.8
20211022141010 45 172 7.0 30.0 0.00 0.40 0.00 76 980.8
20211022140510 45 159 6.0 36.0 0.00 0.40 0.00 75 980.7
20211022140010 45 163 16.0 25.0 0.00 0.40 0.00 74 980.6
20211022135510 45 161 15.0 31.0 0.00 0.40 0.00 73 980.7
20211022135009 45 167 25.0 33.0 0.00 0.40 0.00 74 980.7
20211022134510 45 268 6.0 33.0 0.00 0.40 0.00 75 980.7
20211022134009 45 174 28.0 32.0 0.00 0.40 0.00 76 980.4
20211022133510 45 145 11.0 29.0 0.00 0.40 0.00 75 980.4
20211022133010 45 161 21.0 25.0 0.00 0.40 0.00 74 980.4
20211022132509 46 171 14.0 17.0 0.00 0.40 0.00 73 980.4
20211022132010 46 164 5.0 17.0 0.00 0.40 0.00 73 980.3
20211022131510 46 184 15.0 23.0 0.00 0.40 0.00 72 980.0
20211022131009 46 188 4.0 26.0 0.00 0.40 0.00 70 980.0
20211022130509 46 168 20.0 29.0 0.00 0.40 0.00 68 980.0
20211022130009 47 167 7.0 20.0 0.00 0.40 0.00 67 979.8
20211022125509 47 168 14.0 38.0 0.00 0.40 0.00 66 979.8
20211022125009 47 150 13.0 21.0 0.00 0.40 0.00 64 979.4
20211022124510 47 177 18.0 29.0 0.00 0.40 0.00 63 979.5
20211022124009 47 170 13.0 34.0 0.00 0.40 0.00 63 979.3
20211022123509 47 193 7.0 27.0 0.00 0.40 0.00 63 979.3
20211022123010 47 178 17.0 23.0 0.00 0.40 0.00 63 979.4
20211022122510 48 259 11.0 29.0 0.00 0.40 0.00 62 979.4
20211022122009 48 166 14.0 17.0 0.00 0.40 0.00 61 979.3
20211022121509 48 131 11.0 28.0 0.00 0.40 0.00 60 979.1
20211022121009 48 271 15.0 28.0 0.00 0.40 0.00 60 978.7
20211022120509 48 181 12.0 30.0 0.00 0.40 0.00 60 979.0
20211022120009 48 174 18.0 32.0 0.00 0.40 0.00 60 978.8
20211022115510 48 164 12.0 26.0 0.00 0.40 0.00 60 978.6
20211022115010 48 170 13.0 26.0 0.00 0.40 0.00 61 978.5
20211022114510 48 161 22.0 48.0 0.00 0.40 0.00 60 978.6
20211022114010 48 158 15.0 31.0 0.00 0.40 0.00 61 978.5
20211022113509 48 178 15.0 21.0 0.00 0.40 0.00 61 978.5
20211022113010 48 170 20.0 30.0 0.00 0.40 0.00 61 978.1
20211022112510 48 168 11.0 23.0 0.00 0.40 0.00 61 978.3
20211022112010 48 163 10.0 29.0 0.00 0.40 0.00 61 978.1
20211022111509 48 147 14.0 27.0 0.00 0.40 0.00 62 978.0
20211022111010 48 172 22.0 25.0 0.00 0.40 0.00 62 978.0
20211022110509 48 166 20.0 27.0 0.00 0.40 0.00 62 978.1
20211022110009 48 164 13.0 30.0 0.00 0.40 0.00 62 978.1
20211022105509 48 151 9.0 36.0 0.00 0.40 0.00 62 978.0
20211022105009 48 152 18.0 32.0 0.00 0.40 0.00 62 977.8
20211022104509 48 185 26.0 33.0 0.00 0.40 0.00 62 977.7
20211022104009 48 146 9.0 29.0 0.00 0.40 0.00 62 977.9
20211022103509 48 211 18.0 33.0 0.00 0.40 0.00 63 977.8
20211022103009 48 173 19.0 25.0 0.00 0.40 0.00 64 977.8
20211022102509 48 178 10.0 31.0 0.00 0.40 0.00 64 977.7
20211022102009 48 165 20.0 29.0 0.00 0.40 0.00 64 977.7
20211022101509 48 175 8.0 28.0 0.00 0.40 0.00 65 977.5
20211022101009 48 185 13.0 22.0 0.00 0.40 0.00 65 977.5
20211022100509 48 195 13.0 27.0 0.00 0.40 0.00 65 977.4
20211022100009 47 156 7.0 28.0 0.00 0.40 0.00 65 977.4
20211022095509 47 155 16.0 32.0 0.00 0.40 0.00 66 977.4
20211022095009 47 166 16.0 30.0 0.00 0.40 0.00 66 977.6
20211022094509 47 164 13.0 26.0 0.00 0.40 0.00 67 977.5
20211022094009 47 171 15.0 22.0 0.00 0.40 0.00 68 977.4
20211022093510 47 160 19.0 21.0 0.00 0.40 0.00 68 977.4
20211022093009 47 185 10.0 26.0 0.00 0.40 0.00 68 977.2
20211022092509 47 179 12.0 27.0 0.00 0.40 0.00 69 976.9
20211022092009 47 183 11.0 30.0 0.00 0.40 0.00 69 977.1
20211022091509 47 184 9.0 24.0 0.00 0.40 0.00 70 977.1
20211022091009 47 179 14.0 26.0 0.00 0.40 0.00 71 976.9
20211022090509 47 188 7.0 25.0 0.00 0.40 0.00 71 977.0
20211022090010 47 156 16.0 26.0 0.00 0.40 0.00 72 977.0
20211022085509 47 166 16.0 26.0 0.00 0.40 0.00 72 976.8
20211022085009 46 168 21.0 23.0 0.00 0.40 0.00 73 976.8
20211022084509 46 166 10.0 27.0 0.00 0.40 0.00 73 976.8
20211022084009 46 185 13.0 24.0 0.00 0.40 0.00 74 976.7